Flag for U.S.A. Weather past 2 weeks in Clearwater, Florida, U.S.A.

Now
72 °F

Fog.


Feels Like: 68 °F
Forecast: 58 / 67 °F
Wind: 7 mph from North

Location: St. Petersburg / Clearwater International Airport

Current Time: Mar 6, 2015 at 1:41:26 PM

Latest Report: Mar 6, 2015 at 12:53 PM


Visibility: 4 mi

Pressure: 30.20 "Hg

Humidity: 93%

Dew point: 70 °F

Location of ClearwaterLocation

Historic Weather in Clearwater — Graph

°F

Clearwater temperature yesterday

Maximum temperature yesterday: 80 °F (at 1:53 PM)
Minimum temperature yesterday: 65 °F (at 6:53 AM)
Average temperature yesterday: 73 °F

Past Weeks' High & Low Weather Summary

 TemperatureHumidityPressure
High82 °F (Mar 3, 2:53 PM)100% (Feb 22, 6:53 AM)30.44 "Hg (Feb 22, 6:53 AM)
Low37 °F (Feb 20, 5:53 AM)21% (Feb 20, 2:53 PM)29.70 "Hg (Feb 26, 1:53 AM)
Average65 °F81%30.16 "Hg
* Reported Feb 19 11:53 AM — Mar 6 11:53 AM, Clearwater, Weather by CustomWeather, © 2015

Note: Actual official high and low records may vary slightly from our data, if they occured in-between our weather recording intervals... More about our weather records

Advertising

Clearwater weather history for previous 24 hours

 ConditionsComfort  
Time TempWeatherWind HumidityBarometerVisibility
11:53 AM
Fri, Mar 6
71 °FLow clouds.6 mph93%30.21 "Hg7 mi
10:53 AM71 °FFog.6 mph90%30.21 "Hg6 mi
9:53 AM71 °FFog.No wind90%30.21 "Hg6 mi
8:53 AM70 °FLow clouds.6 mph90%30.20 "Hg10 mi
8:00 AM69 °FMostly cloudy.3 mph93%30.18 "Hg10 mi
6:53 AM67 °FLow clouds.No wind97%30.16 "Hg9 mi
5:53 AM66 °FFog.8 mph100%30.14 "Hg4 mi
5:01 AM67 °FFog.12 mph97%30.14 "Hg2 mi
3:53 AM68 °FFog.5 mph100%30.12 "Hg1 mi
2:53 AM69 °FFog.No wind100%30.12 "Hg1 mi
1:53 AM68 °FFog.3 mph100%30.13 "Hg1 mi
12:53 AM69 °FFog.5 mph96%30.14 "Hg5 mi
11:53 PM
Thu, Mar 5
70 °FLow clouds.8 mph97%30.15 "Hg7 mi
11:00 PM71 °FFog.8 mph96%30.16 "Hg6 mi
9:53 PM71 °FClear.6 mph93%30.15 "Hg9 mi
8:53 PM71 °FClear.6 mph93%30.14 "Hg10 mi
7:53 PM72 °FClear.7 mph93%30.12 "Hg10 mi
6:53 PM74 °FClear.9 mph88%30.11 "Hg10 mi
5:53 PM76 °FPassing clouds.12 mph82%30.09 "Hg10 mi
5:00 PM77 °FScattered clouds.15 mph82%30.09 "Hg10 mi
3:53 PM78 °FPartly sunny.17 mph76%30.08 "Hg10 mi
2:53 PM80 °FPartly sunny.16 mph74%30.08 "Hg10 mi
1:53 PM80 °FPartly sunny.21 mph74%30.10 "Hg10 mi
Weather by CustomWeather, © 2015

See weather overviewHow to use our weather pages